Torna al catalogo

ONEWEB-0517

AttivoComunicazioniPO
NORAD 54135·PAYLOAD·🇬🇧 United Kingdom

Lanciato Oct 22, 2022 da Satish Dhawan Space Centre

Loading…

Prossimi Passaggi (prossime 24 ore)

TLE

AggiornatoSource: CelesTrak SupGP

Epoca: Sep 14, 2026, 23:40 UTC

1 54135C 22138Y   26257.98664769  .00001787  00000+0  44683-2 0  2577
2 54135  87.9118 287.0798 0002211  98.0412 343.0520 13.19724713    11

Traccia ONEWEB-0517 in tempo reale con AllMySat

Download on the App Store